BWA462 TTPP-SYCJ

Flight info

Callsign BWA462
Flight time 0h 55m
Altitude 35000
Route DCT POS DCT VOKAV DCT GATUX DCT AKSIN DCT OGRUM DCT
Aircraft B38M/M-SDE3FGHIRWYZ/LB1

Departure

Time 2026-04-25 01:26
Airport Piarco International Airport (TTPP)

Arrival

Time 2026-04-25 02:21
Airport Cheddi Jagan International Airport (SYCJ)
Time Latitude Longitude Altitude Speed Heading
2026-04-25 01:15 10.59836 -61.33916 54 ft 2 kts 350°
2026-04-25 01:17 10.59841 -61.33926 54 ft 3 kts 270°
2026-04-25 01:17 10.59836 -61.33967 51 ft 7 kts 265°
2026-04-25 01:18 10.59836 -61.34030 54 ft 10 kts 270°
2026-04-25 01:18 10.59836 -61.34064 54 ft 2 kts 270°
2026-04-25 01:18 10.59836 -61.34094 51 ft 7 kts 270°
2026-04-25 01:18 10.59826 -61.34157 52 ft 11 kts 236°
2026-04-25 01:19 10.59750 -61.34176 54 ft 13 kts 182°
2026-04-25 01:19 10.59712 -61.34213 53 ft 13 kts 255°
2026-04-25 01:19 10.59706 -61.34312 53 ft 15 kts 269°
2026-04-25 01:19 10.59705 -61.34426 54 ft 8 kts 270°
2026-04-25 01:20 10.59700 -61.34494 49 ft 11 kts 254°
2026-04-25 01:20 10.59604 -61.34529 50 ft 14 kts 180°
2026-04-25 01:20 10.59535 -61.34529 54 ft 15 kts 180°
2026-04-25 01:20 10.59433 -61.34536 51 ft 6 kts 209°
2026-04-25 01:21 10.59412 -61.34576 51 ft 8 kts 261°
2026-04-25 01:21 10.59409 -61.34648 52 ft 15 kts 267°
2026-04-25 01:21 10.59374 -61.34791 50 ft 26 kts 253°
2026-04-25 01:21 10.59350 -61.34920 54 ft 8 kts 271°
2026-04-25 01:22 10.59350 -61.34985 54 ft 11 kts 270°
2026-04-25 01:22 10.59351 -61.35026 54 ft 4 kts 270°
2026-04-25 01:22 10.59351 -61.35069 54 ft 8 kts 270°
2026-04-25 01:22 10.59352 -61.35135 51 ft 11 kts 277°
2026-04-25 01:23 10.59404 -61.35190 48 ft 13 kts 350°
2026-04-25 01:23 10.59489 -61.35174 54 ft 5 kts 30°
2026-04-25 01:23 10.59528 -61.35153 54 ft 7 kts 55°
2026-04-25 01:23 10.59536 -61.35104 51 ft 5 kts 91°
2026-04-25 01:24 10.59536 -61.35103 54 ft 0 kts 91°
2026-04-25 01:25 10.59535 -61.35085 49 ft 19 kts 91°
2026-04-25 01:25 10.59535 -61.34642 55 ft 104 kts 90°
2026-04-25 01:25 10.59534 -61.33648 56 ft 173 kts 90°
2026-04-25 01:26 10.59500 -61.32343 642 ft 192 kts 93°
2026-04-25 01:26 10.59508 -61.31011 1777 ft 189 kts 89°
2026-04-25 01:26 10.59535 -61.29623 2646 ft 205 kts 89°
2026-04-25 01:26 10.59576 -61.28099 3450 ft 225 kts 89°
2026-04-25 01:27 10.59481 -61.26458 4303 ft 243 kts 105°
2026-04-25 01:27 10.58681 -61.24891 5230 ft 257 kts 126°
2026-04-25 01:27 10.57396 -61.23585 6279 ft 266 kts 140°
2026-04-25 01:28 10.54447 -61.21182 8422 ft 278 kts 139°
2026-04-25 01:28 10.52919 -61.19945 9415 ft 284 kts 140°
2026-04-25 01:28 10.51351 -61.18683 10340 ft 291 kts 140°
2026-04-25 01:28 10.49715 -61.17368 11013 ft 307 kts 141°
2026-04-25 01:29 10.48028 -61.16012 11697 ft 320 kts 141°
2026-04-25 01:29 10.46255 -61.14589 12432 ft 330 kts 141°
2026-04-25 01:29 10.44431 -61.13128 13228 ft 336 kts 141°
2026-04-25 01:29 10.42583 -61.11648 14062 ft 340 kts 141°
2026-04-25 01:30 10.40716 -61.10155 14857 ft 344 kts 141°
2026-04-25 01:30 10.38827 -61.08644 15636 ft 348 kts 142°
2026-04-25 01:30 10.36913 -61.07113 16373 ft 352 kts 142°
2026-04-25 01:30 10.34978 -61.05566 17073 ft 356 kts 142°
2026-04-25 01:31 10.33018 -61.03999 17755 ft 360 kts 142°
2026-04-25 01:31 10.31043 -61.02421 18435 ft 363 kts 142°
2026-04-25 01:31 10.29047 -61.00825 19052 ft 367 kts 142°
2026-04-25 01:31 10.27032 -60.99216 19655 ft 370 kts 142°
2026-04-25 01:32 10.25023 -60.97610 20236 ft 374 kts 142°
2026-04-25 01:32 10.22972 -60.95973 20818 ft 377 kts 142°
2026-04-25 01:32 10.20902 -60.94320 21371 ft 380 kts 142°
2026-04-25 01:32 10.18812 -60.92651 21914 ft 383 kts 142°
2026-04-25 01:33 10.16710 -60.90973 22437 ft 387 kts 142°
2026-04-25 01:33 10.14588 -60.89279 22969 ft 389 kts 142°
2026-04-25 01:33 10.12450 -60.87573 23489 ft 392 kts 142°
2026-04-25 01:33 10.10300 -60.85858 23991 ft 395 kts 142°
2026-04-25 01:34 10.08129 -60.84126 24458 ft 398 kts 142°
2026-04-25 01:34 10.05943 -60.82383 24951 ft 401 kts 142°
2026-04-25 01:34 10.03741 -60.80627 25409 ft 404 kts 142°
2026-04-25 01:34 10.01518 -60.78854 25847 ft 408 kts 142°
2026-04-25 01:35 9.99306 -60.77091 26301 ft 411 kts 142°
2026-04-25 01:35 9.97047 -60.75291 26754 ft 414 kts 142°
2026-04-25 01:35 9.94775 -60.73480 27187 ft 417 kts 142°
2026-04-25 01:35 9.92485 -60.71656 27607 ft 420 kts 142°
2026-04-25 01:36 9.90179 -60.69819 28023 ft 423 kts 142°
2026-04-25 01:36 9.87858 -60.67970 28416 ft 426 kts 142°
2026-04-25 01:36 9.85520 -60.66109 28808 ft 428 kts 142°
2026-04-25 01:36 9.83169 -60.64238 29185 ft 431 kts 142°
2026-04-25 01:37 9.80798 -60.62351 29554 ft 434 kts 142°
2026-04-25 01:37 9.78418 -60.60454 29910 ft 437 kts 142°
2026-04-25 01:37 9.76022 -60.58550 30255 ft 439 kts 142°
2026-04-25 01:37 9.73606 -60.56628 30630 ft 441 kts 142°
2026-04-25 01:38 9.71186 -60.54704 31003 ft 443 kts 142°
2026-04-25 01:38 9.68789 -60.52798 31379 ft 444 kts 142°
2026-04-25 01:38 9.66324 -60.50838 31751 ft 445 kts 142°
2026-04-25 01:38 9.63914 -60.48923 32107 ft 447 kts 142°
2026-04-25 01:39 9.61455 -60.46968 32460 ft 448 kts 142°
2026-04-25 01:39 9.58995 -60.45014 32799 ft 450 kts 142°
2026-04-25 01:39 9.56534 -60.43059 33148 ft 451 kts 142°
2026-04-25 01:39 9.54061 -60.41095 33516 ft 451 kts 142°
2026-04-25 01:40 9.51599 -60.39140 34000 ft 448 kts 142°
2026-04-25 01:40 9.49146 -60.37195 34475 ft 446 kts 143°
2026-04-25 01:40 9.46708 -60.35260 34869 ft 446 kts 142°
2026-04-25 01:40 9.44264 -60.33320 34967 ft 446 kts 142°
2026-04-25 01:41 9.39396 -60.29459 34962 ft 443 kts 142°
2026-04-25 01:41 9.34574 -60.25634 34963 ft 443 kts 142°
2026-04-25 01:42 9.29718 -60.21785 34961 ft 443 kts 142°
2026-04-25 01:42 9.24867 -60.17940 34962 ft 443 kts 142°
2026-04-25 01:43 9.20011 -60.14093 34962 ft 443 kts 142°
2026-04-25 01:43 9.15159 -60.10252 34962 ft 442 kts 142°
2026-04-25 01:44 9.10306 -60.06410 34962 ft 442 kts 142°
2026-04-25 01:44 9.05456 -60.02571 34961 ft 442 kts 142°
2026-04-25 01:45 9.00605 -59.98735 34963 ft 442 kts 142°
2026-04-25 01:45 8.95790 -59.94926 34966 ft 441 kts 142°
2026-04-25 01:46 8.90877 -59.91215 34956 ft 441 kts 150°
2026-04-25 01:46 8.85570 -59.88085 34963 ft 441 kts 149°
2026-04-25 01:47 8.80275 -59.84967 34961 ft 440 kts 149°
2026-04-25 01:47 8.74980 -59.81854 34962 ft 440 kts 149°
2026-04-25 01:48 8.69678 -59.78739 34961 ft 440 kts 149°
2026-04-25 01:48 8.64380 -59.75627 34961 ft 441 kts 149°
2026-04-25 01:49 8.59072 -59.72510 34963 ft 441 kts 149°
2026-04-25 01:49 8.53806 -59.69419 34963 ft 440 kts 149°
2026-04-25 01:50 8.48502 -59.66306 34962 ft 440 kts 149°
2026-04-25 01:50 8.43197 -59.63194 34962 ft 441 kts 149°
2026-04-25 01:51 8.37885 -59.60079 34962 ft 441 kts 149°
2026-04-25 01:51 8.32580 -59.56968 34962 ft 441 kts 149°
2026-04-25 01:52 8.27308 -59.53879 34960 ft 441 kts 149°
2026-04-25 01:52 8.22002 -59.50770 34960 ft 441 kts 149°
2026-04-25 01:53 8.16719 -59.47675 34698 ft 433 kts 149°
2026-04-25 01:53 8.14124 -59.46156 34456 ft 429 kts 149°
2026-04-25 01:53 8.11548 -59.44647 34224 ft 427 kts 149°
2026-04-25 01:54 8.08977 -59.43143 33981 ft 426 kts 149°
2026-04-25 01:54 8.06418 -59.41644 33743 ft 424 kts 149°
2026-04-25 01:54 8.03878 -59.40158 33419 ft 419 kts 149°
2026-04-25 01:54 8.01362 -59.38686 32776 ft 419 kts 149°
2026-04-25 01:55 7.98834 -59.37207 32057 ft 421 kts 149°
2026-04-25 01:55 7.96295 -59.35721 31447 ft 420 kts 149°
2026-04-25 01:55 7.93771 -59.34245 30934 ft 417 kts 149°
2026-04-25 01:55 7.91273 -59.32785 30471 ft 413 kts 149°
2026-04-25 01:56 7.88825 -59.31353 29976 ft 410 kts 149°
2026-04-25 01:56 7.86356 -59.29910 29460 ft 408 kts 149°
2026-04-25 01:56 7.83901 -59.28474 28940 ft 406 kts 149°
2026-04-25 01:56 7.81463 -59.27049 28443 ft 404 kts 149°
2026-04-25 01:57 7.76624 -59.24222 27469 ft 399 kts 149°
2026-04-25 01:57 7.74226 -59.22821 26991 ft 397 kts 149°
2026-04-25 01:57 7.71841 -59.21427 26524 ft 394 kts 149°
2026-04-25 01:58 7.69471 -59.20043 26062 ft 392 kts 149°
2026-04-25 01:58 7.67119 -59.18669 25607 ft 390 kts 149°
2026-04-25 01:58 7.64775 -59.17301 25154 ft 388 kts 149°
2026-04-25 01:58 7.62480 -59.15960 24724 ft 385 kts 149°
2026-04-25 01:59 7.60165 -59.14608 24286 ft 383 kts 149°
2026-04-25 01:59 7.57867 -59.13267 23862 ft 381 kts 149°
2026-04-25 01:59 7.55581 -59.11933 23437 ft 378 kts 149°
2026-04-25 01:59 7.53306 -59.10605 23026 ft 376 kts 149°
2026-04-25 02:00 7.51049 -59.09288 22618 ft 374 kts 149°
2026-04-25 02:00 7.48807 -59.07980 22210 ft 371 kts 149°
2026-04-25 02:00 7.46581 -59.06682 21814 ft 369 kts 149°
2026-04-25 02:00 7.44368 -59.05391 21383 ft 367 kts 149°
2026-04-25 02:01 7.42143 -59.04093 20745 ft 372 kts 149°
2026-04-25 02:01 7.39902 -59.02786 20262 ft 371 kts 149°
2026-04-25 02:01 7.37698 -59.01501 19897 ft 368 kts 149°
2026-04-25 02:01 7.35493 -59.00216 19516 ft 364 kts 149°
2026-04-25 02:02 7.33305 -58.98940 19117 ft 362 kts 148°
2026-04-25 02:02 7.31143 -58.97680 18728 ft 359 kts 148°
2026-04-25 02:02 7.29017 -58.96388 18334 ft 355 kts 143°
2026-04-25 02:02 7.27097 -58.94844 17957 ft 351 kts 139°
2026-04-25 02:03 7.25233 -58.93258 17583 ft 349 kts 138°
2026-04-25 02:03 7.23387 -58.91686 17211 ft 346 kts 138°
2026-04-25 02:03 7.21416 -58.90314 16829 ft 345 kts 154°
2026-04-25 02:03 7.19197 -58.89412 16448 ft 342 kts 151°
2026-04-25 02:04 7.17199 -58.88154 16121 ft 337 kts 146°
2026-04-25 02:04 7.15204 -58.86929 15767 ft 334 kts 148°
2026-04-25 02:04 7.13202 -58.85753 15404 ft 331 kts 148°
2026-04-25 02:04 7.11208 -58.84605 15046 ft 329 kts 149°
2026-04-25 02:05 7.09222 -58.83475 14678 ft 327 kts 149°
2026-04-25 02:05 7.07236 -58.82355 14319 ft 325 kts 149°
2026-04-25 02:05 7.05292 -58.81262 13968 ft 323 kts 149°
2026-04-25 02:05 7.03331 -58.80163 13612 ft 321 kts 149°
2026-04-25 02:06 7.01389 -58.79074 13259 ft 319 kts 149°
2026-04-25 02:06 6.99456 -58.77990 12909 ft 316 kts 149°
2026-04-25 02:06 6.97536 -58.76916 12556 ft 314 kts 149°
2026-04-25 02:06 6.95629 -58.75847 12209 ft 312 kts 149°
2026-04-25 02:07 6.93736 -58.74788 11863 ft 311 kts 149°
2026-04-25 02:07 6.91851 -58.73733 11521 ft 308 kts 149°
2026-04-25 02:07 6.90610 -58.73038 11292 ft 307 kts 149°
2026-04-25 02:07 6.88744 -58.71994 10946 ft 305 kts 149°
2026-04-25 02:08 6.86293 -58.70622 10500 ft 302 kts 149°
2026-04-25 02:08 6.85058 -58.69931 10340 ft 299 kts 149°
2026-04-25 02:08 6.83267 -58.68929 10203 ft 289 kts 149°
2026-04-25 02:08 6.81552 -58.67969 10076 ft 281 kts 149°
2026-04-25 02:09 6.79869 -58.67027 9869 ft 275 kts 149°
2026-04-25 02:09 6.77645 -58.65783 9475 ft 272 kts 149°
2026-04-25 02:09 6.76550 -58.65166 9276 ft 269 kts 148°
2026-04-25 02:09 6.74921 -58.64257 9021 ft 265 kts 149°
2026-04-25 02:10 6.73318 -58.63362 8733 ft 263 kts 149°
2026-04-25 02:10 6.71713 -58.62465 8432 ft 266 kts 149°
2026-04-25 02:10 6.70083 -58.61553 8158 ft 270 kts 149°
2026-04-25 02:10 6.68437 -58.60633 7889 ft 271 kts 149°
2026-04-25 02:11 6.66786 -58.59710 7608 ft 271 kts 149°
2026-04-25 02:11 6.65159 -58.58800 7322 ft 270 kts 149°
2026-04-25 02:11 6.63519 -58.57884 7026 ft 268 kts 149°
2026-04-25 02:11 6.61891 -58.56974 6714 ft 267 kts 149°
2026-04-25 02:12 6.60282 -58.56074 6409 ft 261 kts 149°
2026-04-25 02:12 6.58718 -58.55200 6092 ft 252 kts 148°
2026-04-25 02:12 6.57206 -58.54355 5813 ft 249 kts 148°
2026-04-25 02:12 6.55655 -58.53488 5517 ft 259 kts 149°
2026-04-25 02:13 6.54069 -58.52601 5232 ft 262 kts 149°
2026-04-25 02:13 6.52474 -58.51710 4937 ft 262 kts 149°
2026-04-25 02:13 6.50885 -58.50822 4646 ft 259 kts 148°
2026-04-25 02:13 6.49333 -58.49956 4345 ft 250 kts 148°
2026-04-25 02:14 6.47845 -58.49124 4091 ft 238 kts 148°
2026-04-25 02:14 6.46446 -58.48344 3920 ft 222 kts 148°
2026-04-25 02:14 6.45123 -58.47608 3724 ft 212 kts 148°
2026-04-25 02:14 6.43882 -58.46909 3552 ft 197 kts 148°
2026-04-25 02:15 6.42823 -58.46170 3397 ft 179 kts 133°
2026-04-25 02:15 6.41939 -58.45307 3236 ft 176 kts 133°
2026-04-25 02:15 6.41064 -58.44444 3136 ft 176 kts 133°
2026-04-25 02:15 6.40193 -58.43581 3052 ft 176 kts 133°
2026-04-25 02:16 6.39339 -58.42732 2997 ft 168 kts 133°
2026-04-25 02:16 6.38517 -58.41912 2985 ft 165 kts 133°
2026-04-25 02:16 6.37709 -58.41093 2983 ft 165 kts 128°
2026-04-25 02:16 6.37236 -58.40072 2919 ft 162 kts 99°
2026-04-25 02:17 6.37273 -58.38950 2819 ft 162 kts 76°
2026-04-25 02:17 6.37766 -58.37928 2676 ft 164 kts 56°
2026-04-25 02:17 6.38501 -58.37046 2516 ft 165 kts 51°
2026-04-25 02:17 6.39270 -58.36187 2372 ft 165 kts 49°
2026-04-25 02:18 6.40043 -58.35349 2220 ft 166 kts 47°
2026-04-25 02:18 6.40836 -58.34516 2079 ft 161 kts 46°
2026-04-25 02:18 6.41602 -58.33720 1953 ft 153 kts 47°
2026-04-25 02:18 6.42312 -58.32961 1905 ft 145 kts 46°
2026-04-25 02:19 6.43024 -58.32241 1812 ft 145 kts 45°
2026-04-25 02:19 6.43738 -58.31529 1580 ft 144 kts 45°
2026-04-25 02:19 6.44451 -58.30816 1328 ft 145 kts 44°
2026-04-25 02:19 6.45171 -58.30096 1099 ft 146 kts 44°
2026-04-25 02:20 6.45890 -58.29377 887 ft 146 kts 44°
2026-04-25 02:20 6.46609 -58.28659 673 ft 145 kts 44°
2026-04-25 02:20 6.47311 -58.27946 586 ft 138 kts 45°
2026-04-25 02:20 6.47978 -58.27280 387 ft 138 kts 43°
2026-04-25 02:21 6.48670 -58.26592 182 ft 140 kts 44°
2026-04-25 02:21 6.49325 -58.25941 107 ft 111 kts 45°
2026-04-25 02:21 6.49696 -58.25573 108 ft 42 kts 46°
2026-04-25 02:21 6.49893 -58.25377 108 ft 41 kts 45°
2026-04-25 02:22 6.50081 -58.25192 107 ft 32 kts 44°
2026-04-25 02:22 6.50201 -58.25072 106 ft 24 kts 45°
2026-04-25 02:22 6.50290 -58.25063 106 ft 14 kts 315°
2026-04-25 02:22 6.50305 -58.25077 105 ft 3 kts 315°
2026-04-25 02:23 6.50324 -58.25097 106 ft 3 kts 315°
2026-04-25 02:23 6.50346 -58.25121 106 ft 6 kts 305°
2026-04-25 02:23 6.50352 -58.25131 106 ft 1 kts 300°
2026-04-25 02:23 6.50364 -58.25147 106 ft 4 kts 310°
2026-04-25 02:24 6.50380 -58.25164 106 ft 1 kts 314°
2026-04-25 02:24 6.50386 -58.25171 105 ft 1 kts 314°
2026-04-25 02:24 6.50392 -58.25176 106 ft 0 kts 315°
2026-04-25 02:24 6.50391 -58.25176 106 ft 0 kts 315°